RH
79 83 84 85 90 93 95 99 98 95 92 88 86 88 90 85 81 80 79 75 74 75 77 78 76 72 67 62 67 72 71 71 70 67 68 70 70 70 70 65 57 51 47 45 44 42 35 25 16 10 7 7 10 11 11 11 12 12 11 11 10 10 11 13 16 19 22 24 26 27 28 28 27 26
80 81 83 84 88 91 92 96 98 96 93 89 86 85 86 85 82 81 81 77 76 79 79 80 79 78 73 66 64 67 69 71 70 68 69 70 70 72 72 68 62 55 51 49 49 48 42 32 22 14 9 7 8 10 10 11 12 12 11 11 10 11 11 13 16 19 22 25 27 28 29 28 28 27
77 79 81 83 84 88 92 95 96 95 93 90 89 86 83 85 85 83 83 79 76 80 81 80 81 82 80 74 69 67 69 72 71 69 70 73 72 72 71 69 65 60 56 54 53 53 49 41 30 19 12 8 7 9 10 10 11 11 11 12 11 11 12 14 17 19 22 25 28 29 29 28 28 29
74 76 78 82 84 86 90 93 93 93 92 89 89 88 87 89 91 88 85 80 77 80 80 79 82 85 82 77 73 71 72 73 72 70 72 76 75 70 66 66 64 61 60 59 58 57 55 48 38 25 15 10 7 7 9 10 11 11 11 11 11 11 13 15 18 20 22 25 28 29 28 28 29 31
74 74 74 78 83 84 85 88 91 91 89 87 87 91 92 94 97 92 85 79 76 79 80 79 82 86 82 76 71 71 73 74 71 70 72 74 73 68 63 63 62 61 62 63 62 62 61 56 47 32 19 13 10 7 8 10 11 11 12 12 11 12 13 15 19 21 23 26 29 29 28 29 31 33
71 73 73 76 80 82 83 84 87 89 89 88 88 92 95 97 98 93 85 80 77 79 81 80 82 84 82 78 72 68 71 73 72 71 72 71 68 66 62 61 62 63 63 65 66 66 66 62 55 41 25 16 13 10 8 9 10 11 12 12 12 13 13 16 19 22 25 27 29 28 28 31 34 37
60 67 71 74 78 82 82 81 82 85 90 90 89 90 94 97 97 92 85 81 78 81 82 81 83 82 79 80 77 71 70 74 76 74 72 71 70 68 64 62 64 66 67 68 68 69 70 68 62 51 34 20 15 14 11 9 10 11 12 13 13 14 15 17 19 22 25 26 27 28 30 34 38 42
46 55 60 66 74 79 79 79 81 83 87 91 91 90 92 95 97 95 90 84 79 81 84 85 87 85 80 81 82 79 74 73 75 75 73 72 74 74 71 70 70 71 71 72 70 70 72 71 66 58 44 27 17 16 16 14 12 11 12 13 14 15 16 18 20 22 23 23 25 28 32 38 43 46
33 42 47 55 67 75 75 77 82 84 85 90 94 95 94 95 97 95 90 86 82 81 82 84 87 87 84 83 85 85 81 73 72 77 78 75 75 76 76 76 77 77 75 73 70 69 70 72 68 63 54 38 22 16 17 18 16 14 13 13 14 15 17 18 19 21 21 21 23 27 33 40 45 48
24 31 37 43 55 68 73 74 77 82 85 88 92 97 97 96 97 95 89 85 83 83 83 85 88 88 85 83 83 86 86 77 71 77 82 81 80 81 81 79 78 78 76 73 70 67 68 70 68 64 60 49 33 20 16 17 19 18 16 14 14 14 15 17 18 19 19 20 22 26 32 38 45 50
21 24 29 34 42 56 68 72 74 80 86 89 91 96 99 97 96 98 94 87 84 87 89 91 90 86 83 83 83 83 86 83 79 81 83 81 82 84 83 80 77 76 76 74 72 71 71 71 71 69 65 57 44 29 17 15 18 18 17 16 15 15 15 15 16 16 17 19 20 22 28 36 44 50
20 20 23 28 33 43 57 67 72 77 84 90 92 94 99 99 96 97 94 88 87 92 94 93 90 84 81 85 86 82 83 87 86 85 84 83 83 83 82 81 79 77 77 76 73 72 71 69 69 68 66 61 54 42 26 15 15 17 18 18 17 17 17 16 16 16 17 18 18 20 25 33 42 47
21 21 20 23 28 36 48 61 69 74 78 84 88 92 97 99 97 96 94 90 89 92 93 90 88 86 85 86 86 81 79 82 82 83 83 83 84 83 81 82 83 81 80 80 78 76 73 70 68 67 65 64 61 54 39 24 17 16 16 18 19 19 19 19 19 18 17 17 18 19 24 30 36 40
21 22 21 21 24 30 39 51 62 71 74 76 81 88 95 99 99 97 96 93 90 90 90 87 85 87 88 88 87 82 78 79 80 81 80 79 83 84 80 81 84 83 80 80 80 79 76 73 72 71 70 69 65 59 47 32 21 17 16 18 19 20 21 21 21 20 19 19 19 21 24 27 30 32
21 22 22 22 23 26 33 43 56 67 73 75 78 83 90 96 99 99 98 96 92 89 88 85 84 87 89 90 90 88 86 84 81 81 80 78 82 84 80 80 85 84 81 79 77 79 77 74 74 74 73 72 68 60 46 31 21 18 18 19 19 21 22 22 22 22 21 20 21 22 24 26 28 28
21 22 23 24 24 27 31 39 53 68 77 81 81 80 84 90 95 97 97 97 95 91 88 86 85 87 90 92 92 91 89 85 80 82 83 79 80 83 81 79 80 82 84 80 74 76 78 75 74 75 75 74 69 59 44 31 24 21 21 21 21 23 23 23 24 24 23 23 22 22 25 27 27 27
25 24 23 24 26 28 30 37 55 71 81 85 85 82 81 82 86 92 96 96 96 95 94 91 89 91 95 95 93 90 87 84 81 83 84 80 77 80 80 77 76 80 85 82 77 77 79 78 76 75 74 73 67 57 44 33 27 24 22 23 23 24 25 25 26 26 25 25 23 24 26 27 27 30
30 29 26 25 26 29 31 39 57 73 79 81 84 83 80 77 78 86 93 95 95 96 96 94 91 93 96 94 92 88 85 85 85 83 82 79 76 77 79 79 80 82 84 82 82 83 82 81 81 79 75 71 66 56 44 35 30 27 26 27 27 28 28 28 28 27 27 26 26 27 28 29 32 36
35 35 34 30 28 30 32 37 53 75 82 79 80 82 79 74 76 82 88 91 94 96 97 96 95 95 94 90 87 85 84 84 81 79 81 83 81 81 84 83 80 82 87 88 86 86 85 83 83 80 75 71 63 52 42 37 36 36 36 35 34 34 33 31 30 29 28 28 29 30 30 34 39 43
38 38 39 37 33 35 36 33 43 68 80 77 79 83 80 76 78 83 86 89 94 97 98 99 98 97 95 91 88 88 88 84 77 80 89 91 84 82 86 86 81 82 91 94 88 83 83 83 82 81 76 69 60 51 45 46 47 47 45 41 38 36 34 32 31 31 32 33 33 34 39 46 53 62
47 42 43 45 42 42 44 40 42 60 73 74 77 83 82 80 83 87 88 89 92 95 98 99 99 99 98 94 91 92 94 87 80 85 95 95 88 85 87 88 86 86 93 96 89 81 82 82 79 76 71 66 61 58 57 59 60 55 47 41 37 35 33 32 32 33 35 37 42 51 63 72 78 85
64 57 53 55 53 51 54 52 48 54 65 70 78 86 87 84 85 87 88 88 89 91 95 97 97 97 97 95 94 94 95 92 89 90 93 94 94 92 90 89 89 91 96 99 92 83 81 81 79 74 71 70 69 70 70 68 64 56 46 40 37 35 34 33 33 34 38 46 61 78 89 93 95 97
77 75 70 66 61 58 60 62 57 54 54 61 75 90 93 87 84 86 88 89 90 93 94 95 96 96 95 94 95 98 98 97 97 96 93 94 96 94 90 88 90 91 93 96 94 87 81 82 82 79 78 78 77 76 74 69 61 53 46 41 39 37 36 35 35 39 50 66 84 95 99 99 99 100
75 78 79 78 76 72 70 71 70 64 57 62 79 94 93 85 83 87 90 91 92 94 96 96 97 98 98 96 95 97 98 97 97 96 94 93 94 92 89 87 89 90 90 89 90 88 85 86 89 88 87 87 85 81 75 67 59 56 55 55 55 53 53 56 61 68 78 89 97 100 100 100 100 99
76 75 74 77 84 90 90 87 85 79 69 71 88 99 93 86 86 90 92 92 91 93 96 97 97 98 100 99 96 95 95 95 96 97 96 93 90 86 85 85 88 93 94 91 91 92 91 91 95 96 96 96 94 91 85 76 70 69 72 75 78 80 82 87 92 95 97 99 100 100 100 100 97 94
83 84 81 78 82 91 97 96 96 94 85 82 92 101 96 90 91 94 95 94 93 94 95 96 97 97 97 98 98 95 96 98 99 99 97 92 86 84 84 84 86 90 90 89 91 93 93 94 96 99 100 99 97 97 95 92 88 86 86 87 90 93 96 99 100 100 100 100 100 100 100 98 97 94
80 89 94 93 91 92 96 95 95 97 96 94 97 100 97 94 94 96 97 95 94 95 96 96 97 98 97 97 98 98 98 99 98 97 96 93 90 92 93 91 91 92 91 90 91 91 91 94 97 99 100 99 98 97 97 98 98 96 94 94 96 98 99 99 100 100 100 100 100 100 100 99 98 96
78 85 92 98 98 97 97 96 92 91 95 99 100 99 98 97 97 97 98 97 96 98 99 98 99 99 98 98 98 99 98 97 96 96 97 96 94 93 93 93 94 95 94 94 95 95 96 98 99 99 99 99 99 97 96 97 98 99 99 99 99 100 100 99 100 100 100 100 100 100 100 99 98 96
82 88 92 97 99 99 99 99 95 91 94 99 100 99 98 98 98 99 99 99 99 99 99 99 99 98 99 99 98 97 96 96 98 98 98 99 97 93 93 96 98 98 97 96 96 97 99 99 99 99 99 99 99 99 98 98 99 100 100 100 100 100 100 100 100 100 100 100 100 100 99 96 93 89
81 87 91 95 98 99 100 100 98 97 98 100 100 100 99 98 99 100 99 98 100 100 98 99 100 99 101 101 99 99 99 99 100 100 99 99 99 97 98 99 99 100 100 99 98 99 100 100 99 99 99 99 99 100 100 100 99 99 100 100 99 100 100 100 100 100 100 100 99 98 95 90 86 81
75 82 88 94 98 99 100 100 100 99 100 100 100 100 99 98 99 100 99 99 101 101 99 99 100 98 99 100 99 99 101 101 100 100 99 99 100 100 100 100 100 100 100 100 100 100 99 99 99 99 99 99 99 99 99 99 99 99 100 100 100 100 100 100 100 100 100 99 96 91 87 82 77 72
77 86 93 97 100 100 100 100 100 100 100 100 100 100 99 99 99 99 99 100 101 100 98 99 99 97 97 99 100 100 100 99 99 99 98 98 99 99 99 100 100 99 98 99 99 100 100 100 100 99 99 99 100 100 100 100 100 100 100 100 100 100 100 100 100 100 97 92 87 82 78 72 66 61
77 84 92 97 100 100 100 100 100 100 100 100 100 100 100 100 100 99 99 100 100 100 99 100 99 98 98 99 100 99 99 99 99 98 97 96 96 96 97 99 99 98 96 95 95 96 97 99 99 100 100 100 100 100 100 100 100 100 100 100 100 100 100 100 99 95 89 85 81 76 70 63 58 53
76 76 82 91 97 100 100 100 100 100 100 100 100 100 100 99 100 100 99 100 100 100 100 100 100 100 99 99 100 100 100 100 99 99 99 98 97 97 97 98 99 98 94 92 93 93 93 94 95 98 99 99 99 100 100 100 100 100 100 100 100 100 99 97 92 88 84 81 76 70 64 57 51 46
75 72 75 83 90 96 99 100 100 100 100 100 99 100 100 100 100 100 99 99 100 100 100 100 100 100 99 99 100 100 100 99 99 99 99 100 100 100 100 100 100 98 96 96 97 97 96 96 96 98 99 100 100 100 100 100 100 100 100 100 99 97 94 91 88 84 80 75 69 63 58 51 45 42
75 73 75 77 82 88 92 95 98 99 100 100 100 100 100 100 100 100 100 100 99 99 100 100 100 100 100 100 100 100 100 100 99 99 100 100 100 100 100 100 100 99 99 99 100 99 99 99 99 100 100 100 100 100 100 100 100 100 99 97 95 93 91 88 84 79 73 67 62 58 52 46 42 41
76 78 80 79 80 83 86 89 93 95 97 99 100 100 100 100 100 100 100 100 100 99 100 100 100 100 100 100 100 100 100 100 100 100 100 100 100 100 100 99 100 100 100 100 100 100 100 100 100 100 100 100 100 100 100 100 99 99 98 96 94 91 86 81 76 70 65 62 58 52 47 44 45 47
79 82 84 84 85 87 88 88 89 91 92 95 98 100 100 100 100 100 100 100 100 99 100 100 100 100 100 100 100 99 99 99 100 100 100 100 100 100 100 100 100 100 100 100 100 100 100 100 100 100 100 100 100 100 99 99 98 98 97 94 88 82 77 73 70 67 63 58 53 49 48 49 51 52
82 85 87 89 91 93 93 93 93 91 90 91 93 96 98 99 99 100 100 100 100 100 100 100 100 100 100 100 99 98 98 98 99 99 99 100 100 100 100 100 100 100 100 100 100 100 100 100 100 100 100 100 100 99 99 98 96 93 88 83 78 75 73 71 68 64 58 53 51 52 54 54 53 51
83 87 90 93 95 96 95 95 95 94 93 91 90 91 93 95 97 98 99 99 100 100 100 100 100 100 100 100 100 99 99 99 100 100 100 100 100 100 100 100 100 100 100 100 100 100 100 100 100 100 99 98 97 95 93 90 86 82 78 75 74 73 70 66 61 58 56 57 58 58 56 54 50 47
81 85 88 92 97 99 97 95 95 95 94 94 94 93 92 92 92 94 96 98 99 99 100 100 100 100 100 100 100 100 99 99 100 100 100 100 100 100 100 100 100 100 100 100 100 100 100 99 98 95 92 89 87 84 81 77 75 72 71 71 70 66 60 57 57 59 61 63 61 57 52 49 47 44
78 80 83 86 92 97 100 99 98 96 95 95 96 98 98 96 94 94 95 96 96 97 98 99 100 100 100 100 100 100 100 100 100 100 100 100 100 100 100 100 100 100 100 99 98 97 94 92 89 85 82 79 78 75 73 72 70 68 67 65 62 59 57 57 61 63 62 59 56 52 48 46 45 44
73 73 74 78 83 90 95 98 97 96 95 95 95 96 98 100 100 98 97 97 97 97 98 99 100 100 100 100 100 100 100 100 100 100 100 99 99 98 98 97 96 95 93 92 90 88 85 83 81 78 76 75 73 70 69 68 66 64 63 61 59 59 60 61 62 60 56 53 51 50 49 48 47 46
63 65 66 71 78 86 93 95 95 93 92 92 93 94 95 98 100 100 100 99 99 99 99 99 99 100 100 100 101 100 100 100 99 98 97 95 94 92 91 89 87 86 84 82 81 80 78 76 74 72 70 69 68 66 65 64 63 61 61 63 63 63 61 59 57 55 52 51 50 50 50 51 50 50
52 56 59 63 71 83 94 98 97 95 93 90 90 91 91 93 95 97 98 98 98 99 99 99 99 99 100 100 98 97 96 95 94 93 92 90 88 86 84 82 80 78 76 74 73 72 71 69 68 66 64 63 63 62 63 64 65 65 64 63 62 60 57 54 52 51 50 49 50 51 52 52 52 51
Wind_Speed
21 20 20 21 23 26 29 29 30 31 31 32 32 32 31 31 32 33 33 32 29 27 26 25 24 24 25 24 23 24 23 23 23 22 20 18 18 17 17 16 16 15 14 13 12 10 10 10 10 11 13 14 15 15 15 15 15 15 14 13 13 12 11 11 11 12 12 12 12 11 11 11 11 10
21 21 20 20 21 25 29 30 30 31 32 33 33 34 33 33 34 34 33 32 29 28 28 26 24 24 25 24 24 25 24 24 24 23 21 19 19 19 18 17 17 16 15 15 13 12 11 11 11 11 12 14 15 16 16 16 16 16 15 14 13 13 12 12 13 13 13 13 13 13 12 12 11 11
21 21 20 20 21 23 26 29 30 31 32 33 34 36 35 35 36 35 33 32 30 29 29 27 25 24 25 24 24 24 24 24 25 24 23 21 21 21 20 19 19 18 17 16 15 13 12 12 12 12 12 13 15 16 17 17 17 16 16 15 14 14 13 13 14 14 14 14 14 14 14 13 12 11
22 22 21 22 21 22 24 28 30 31 32 34 36 38 37 36 36 35 35 33 31 30 30 29 27 25 25 25 25 25 25 26 26 25 24 24 23 23 22 21 20 19 18 17 17 15 14 13 13 13 13 13 15 16 17 17 17 17 16 16 15 15 15 15 15 15 15 15 15 15 15 13 12 12
22 22 22 23 22 23 25 26 29 32 34 35 37 38 39 38 37 37 37 35 33 32 32 31 29 27 26 26 27 27 26 27 27 26 26 26 26 25 23 22 22 21 19 19 19 17 16 15 14 14 14 14 15 16 17 18 18 17 17 17 16 16 16 16 16 16 16 16 17 16 15 14 13 13
22 23 23 23 22 23 25 25 27 30 33 35 36 38 39 38 38 38 37 35 35 33 32 32 31 29 29 28 29 29 28 28 28 27 27 28 27 26 25 23 23 22 21 20 20 19 18 16 15 15 15 15 16 16 17 18 18 18 18 17 17 17 17 17 17 17 17 17 17 17 16 14 14 14
23 23 23 23 22 23 25 25 25 27 32 35 35 36 38 37 37 38 37 36 36 34 33 34 33 32 32 30 29 30 28 28 29 29 28 28 27 26 25 24 23 23 22 22 22 21 19 18 17 17 17 17 17 17 17 17 17 18 18 18 18 18 18 18 18 18 18 18 18 17 16 15 15 14
24 23 23 23 23 24 25 25 24 25 29 33 34 37 38 36 36 37 36 35 37 36 35 35 34 34 34 31 30 31 30 30 31 31 29 29 29 28 26 25 24 24 23 23 23 23 21 19 18 18 18 18 19 19 18 18 18 18 18 18 19 19 19 19 19 19 19 19 19 18 17 16 16 16
27 25 23 23 23 24 25 25 25 26 28 31 34 38 38 37 36 38 38 37 38 37 36 36 36 35 35 33 32 32 32 32 32 32 30 30 31 30 28 27 26 26 26 25 25 24 23 22 20 20 20 20 20 20 20 19 18 18 19 19 20 20 20 20 20 21 21 20 20 19 19 18 17 17
29 28 26 25 24 25 25 25 25 26 29 31 33 36 38 39 38 39 39 39 38 37 36 37 39 37 35 35 34 33 32 32 33 32 32 31 32 31 29 28 28 29 28 27 26 26 25 24 22 22 22 22 22 22 22 21 20 20 20 20 20 20 21 21 22 22 22 22 21 21 20 19 19 19
31 30 29 28 28 27 27 27 25 25 28 30 32 33 35 38 39 39 40 40 40 38 37 39 40 37 35 36 36 34 33 35 35 34 33 32 31 31 30 30 30 30 30 29 28 27 26 25 24 23 23 23 23 23 23 23 23 22 22 22 21 21 22 22 23 23 23 23 22 22 21 21 21 21
33 32 31 30 31 29 28 28 26 25 25 27 29 31 32 35 38 40 41 42 44 41 39 39 38 37 37 38 37 36 36 38 37 35 32 31 30 31 30 30 31 31 31 30 30 29 29 28 27 26 25 25 25 25 25 25 25 25 24 23 23 23 23 23 23 24 23 23 23 22 22 22 23 23
34 34 33 32 32 31 30 29 28 26 25 25 26 28 30 33 36 40 42 43 45 43 40 40 39 38 38 39 39 40 39 37 34 33 32 29 30 31 30 31 33 33 32 31 31 31 30 29 28 27 27 26 26 26 26 26 26 26 25 25 24 25 25 25 24 24 24 23 23 22 23 23 24 25
34 35 35 33 32 32 31 30 29 28 26 25 24 25 28 32 34 38 42 43 43 42 42 42 41 41 41 40 40 41 39 35 34 34 32 29 30 33 34 35 35 34 33 33 32 32 31 30 29 28 27 26 26 26 26 26 25 26 26 26 26 26 26 26 26 25 24 23 23 23 24 24 25 26
33 35 35 35 33 32 31 31 30 28 27 26 25 25 26 29 30 33 39 44 45 45 45 45 44 43 42 40 40 40 39 38 37 35 33 31 33 36 37 37 35 34 34 33 32 32 32 31 30 29 28 27 27 26 25 25 26 26 26 26 27 28 27 27 27 26 26 25 24 25 25 25 26 27
32 33 35 34 33 32 31 31 30 29 27 27 27 26 25 27 29 30 35 41 46 48 48 46 46 46 44 41 40 40 40 40 39 36 35 35 35 35 37 37 34 33 34 33 32 32 32 32 31 31 30 29 28 27 26 27 28 28 28 28 29 29 29 29 29 28 27 26 26 26 26 27 27 27
32 33 34 34 33 32 31 31 31 31 29 28 29 28 27 27 28 30 33 36 42 47 49 48 48 47 44 42 41 39 39 40 40 39 37 37 37 37 37 36 34 34 36 35 33 32 32 33 33 32 32 31 30 29 30 30 30 30 30 30 31 31 31 31 30 29 28 27 27 27 28 28 29 28
30 32 33 33 33 32 31 31 33 33 32 31 31 31 30 29 29 30 32 35 38 44 49 50 49 47 45 42 39 37 38 39 39 38 37 37 38 38 37 35 34 36 38 36 33 32 32 33 34 34 33 33 32 32 32 32 32 32 33 33 33 33 33 32 31 30 29 28 29 29 29 30 30 29
30 31 32 33 33 32 31 31 34 35 35 34 33 33 32 32 31 30 31 34 37 41 46 49 50 48 45 42 39 39 39 38 37 37 37 37 37 37 37 37 37 37 36 34 33 32 31 33 35 35 35 34 33 33 34 34 34 34 34 35 35 35 34 33 31 30 30 30 30 30 31 31 31 31
31 31 31 32 33 33 32 32 34 36 37 36 35 34 33 33 32 30 29 31 34 39 45 47 48 46 44 42 42 42 41 40 40 40 40 40 40 40 41 41 40 39 37 36 36 33 31 33 36 36 35 35 34 35 35 34 34 35 35 36 36 35 34 33 32 31 31 31 31 31 31 31 32 31
30 31 32 32 32 32 33 33 34 36 38 37 36 35 34 34 32 30 29 30 32 36 40 44 46 45 41 41 43 44 42 41 42 42 43 42 41 41 41 41 42 41 39 39 38 34 32 34 36 36 36 37 37 37 36 36 36 36 36 36 36 35 34 33 32 32 32 32 32 31 31 31 32 32
30 30 31 32 31 31 32 34 35 37 39 39 38 36 34 34 33 30 30 30 31 32 35 40 44 45 42 42 43 43 41 40 41 42 42 41 41 40 40 40 41 41 40 39 38 36 35 35 36 37 38 38 38 38 37 37 37 36 36 36 35 35 34 33 33 33 33 33 33 32 33 34 35 35
28 29 30 31 32 32 32 33 34 37 40 40 39 37 35 34 33 31 30 30 30 31 33 38 42 44 44 44 42 40 38 39 41 41 39 38 39 39 39 39 41 42 42 42 41 39 37 37 36 37 39 39 39 39 38 37 37 36 36 35 35 35 34 33 34 34 34 34 35 36 37 38 39 39
27 27 28 30 31 31 32 32 32 34 38 40 39 38 38 34 31 31 32 31 30 31 32 36 39 40 41 42 41 39 39 40 41 39 37 36 37 37 37 39 41 40 40 43 43 39 38 37 37 37 39 39 38 37 37 37 37 36 35 35 34 34 34 33 34 34 35 37 39 40 40 40 40 38
26 27 27 28 29 29 30 30 29 30 34 39 38 37 36 32 29 31 33 32 32 32 32 34 37 38 39 40 41 41 41 40 39 38 37 37 37 37 37 38 40 38 37 39 41 38 37 37 38 40 41 41 39 38 37 37 37 36 36 35 35 35 35 35 35 36 38 41 43 43 42 40 38 35
24 25 27 27 27 27 27 28 28 27 28 34 37 35 34 32 31 32 33 32 33 34 34 34 35 36 37 39 40 41 41 40 39 39 39 39 39 39 38 40 41 39 37 38 41 40 39 39 40 42 44 43 42 40 39 38 38 38 38 38 38 38 38 38 39 41 42 44 44 44 42 40 37 34
23 22 23 25 26 26 25 25 27 26 25 28 33 33 32 32 32 32 32 33 34 34 34 34 34 35 35 35 36 38 39 40 40 40 40 39 38 37 37 38 38 36 36 40 42 41 40 40 40 42 43 44 43 43 43 42 40 39 40 41 41 41 41 42 43 44 43 42 42 41 39 37 35 32
24 21 20 21 23 24 23 22 23 24 24 24 28 30 31 33 33 32 31 33 33 33 34 33 33 34 35 34 35 37 38 40 39 39 39 38 37 35 35 35 36 36 38 41 41 40 40 42 43 43 44 43 43 44 45 44 43 43 44 44 43 43 44 44 43 41 39 38 37 36 35 34 33 31
25 22 19 19 19 19 19 19 19 20 21 22 24 27 30 32 32 30 30 32 33 32 32 31 30 30 31 32 33 33 35 37 38 37 37 37 37 36 34 33 35 37 37 37 37 37 38 41 43 45 45 45 44 45 45 44 45 46 46 46 46 46 45 43 40 37 36 35 34 32 31 30 29 28
22 20 17 17 16 15 15 15 13 14 15 17 19 23 26 30 32 32 31 34 33 28 26 27 29 29 28 28 29 29 30 33 35 34 34 34 34 34 33 32 32 33 32 32 34 34 35 37 38 40 43 44 44 43 44 45 46 48 47 45 43 42 40 38 35 34 33 32 31 29 28 26 25 23
23 22 19 18 16 15 13 12 9 8 9 10 11 14 16 23 32 35 33 33 33 27 24 26 28 28 27 26 26 27 27 29 31 31 30 30 29 29 29 27 27 27 26 27 29 32 33 34 34 34 36 39 39 39 41 44 45 44 42 39 36 35 34 33 33 32 31 29 27 25 23 21 20 18
27 25 22 18 15 13 12 10 7 5 4 4 5 9 12 17 26 32 30 29 29 26 24 24 24 24 24 22 21 22 22 22 23 24 25 26 27 27 27 26 25 25 25 24 26 28 28 29 29 29 29 33 36 36 35 36 37 35 34 34 34 34 33 31 30 28 26 23 21 19 17 15 15 15
28 24 20 16 14 11 9 8 7 4 2 1 1 5 9 13 19 21 18 17 19 20 21 22 23 23 23 21 19 18 18 19 19 21 22 23 24 25 27 27 28 28 29 28 27 26 26 27 30 31 29 31 34 34 33 33 34 35 34 34 33 31 29 27 25 22 20 19 17 15 13 12 12 13
28 25 20 17 15 12 9 7 6 6 2 1 1 2 5 7 11 12 11 12 16 18 19 22 23 23 22 21 20 19 19 19 18 18 19 19 19 19 21 23 25 27 29 30 28 27 26 27 29 33 36 38 38 37 35 34 34 33 33 31 29 26 24 22 20 19 18 16 14 12 11 10 12 13
27 25 23 21 18 16 12 8 6 5 4 3 3 3 2 3 4 5 6 9 12 14 17 20 23 23 23 23 22 20 18 17 16 16 17 18 18 18 19 21 23 24 26 26 26 25 25 26 29 35 40 41 38 36 35 33 32 32 31 28 25 22 19 17 16 16 14 13 11 11 12 13 14 15
26 26 26 24 22 20 18 15 11 8 5 4 3 4 4 3 2 2 1 2 4 6 9 13 15 17 19 19 18 16 15 14 15 16 17 18 18 18 20 22 25 26 26 27 27 26 27 29 33 36 38 38 36 35 33 32 31 28 25 22 19 16 14 14 13 12 11 10 11 13 14 15 16 15
26 26 27 27 26 25 23 21 19 15 12 9 7 4 2 2 2 2 1 1 1 2 3 5 8 10 12 12 12 12 13 14 16 16 16 17 17 17 19 23 26 27 28 29 29 30 31 32 34 34 34 33 32 30 28 26 24 21 18 16 14 12 11 11 11 10 11 12 13 15 15 15 14 13
25 26 27 27 28 27 26 25 23 21 19 17 14 11 8 5 3 2 2 3 3 2 3 3 5 6 8 8 9 11 12 14 15 15 15 16 16 16 17 20 23 24 25 25 26 27 28 28 28 27 25 23 21 20 18 17 16 14 13 11 10 10 10 10 11 11 13 14 15 15 14 12 10 10
24 25 26 26 27 27 26 26 25 24 22 21 19 17 15 12 9 7 5 4 5 5 5 5 5 6 8 8 9 11 12 12 13 13 13 14 14 15 15 16 17 19 19 20 21 21 21 21 20 19 17 16 15 13 12 12 11 11 10 10 9 9 10 12 12 13 14 15 14 12 10 8 7 7
23 23 24 25 25 25 25 25 25 24 24 22 21 20 18 16 14 11 9 7 5 5 5 6 6 7 7 8 8 9 10 10 10 10 10 11 11 12 13 13 14 15 16 17 17 17 17 17 16 15 14 14 14 13 13 12 11 11 10 10 10 11 12 13 13 13 12 11 9 8 7 5 4 5
22 21 22 22 23 23 24 24 24 24 24 23 21 20 18 17 16 14 12 10 8 7 6 4 4 4 5 6 6 6 7 7 8 8 9 9 10 11 12 14 15 15 15 16 15 15 15 14 13 13 12 12 12 11 11 11 10 10 10 11 12 12 13 13 11 10 9 7 7 6 6 4 4 4
20 20 20 20 21 21 21 22 23 23 23 22 21 20 18 17 15 14 13 12 10 9 8 7 5 4 4 5 6 7 7 8 8 9 9 9 10 11 12 14 14 15 15 15 15 15 14 14 13 13 12 12 11 10 9 9 10 10 11 11 11 11 10 10 9 8 8 7 7 6 5 4 3 3
19 19 20 20 20 20 19 20 20 21 20 20 20 19 19 17 16 14 13 12 11 10 9 7 7 6 6 8 9 9 10 11 12 12 12 12 13 13 14 14 14 14 14 14 14 14 13 13 13 13 12 11 10 9 9 10 10 10 10 10 9 9 9 8 8 9 8 7 6 5 4 3 3 3
18 18 19 19 18 18 18 19 19 18 18 18 18 18 18 17 16 15 13 12 11 11 10 9 9 9 9 10 10 11 11 12 13 13 13 13 13 13 13 13 13 13 13 13 13 13 13 12 12 11 10 9 8 8 8 8 8 9 9 9 9 9 9 10 10 9 8 6 5 5 4 4 4 5
18 17 17 16 16 16 17 18 18 17 17 16 16 16 16 15 15 14 14 13 12 12 12 12 12 12 12 12 12 13 13 13 13 13 13 12 12 11 11 10 10 9 10 11 11 11 11 11 10 9 9 8 7 7 7 7 7 8 8 8 8 8 9 9 9 8 7 6 5 5 4 4 4 5
Wind_Direction
292 283 276 276 270 257 245 241 240 240 239 236 234 234 234 237 238 237 237 237 235 235 237 239 238 237 235 230 226 226 227 227 229 229 226 224 226 224 223 225 226 225 225 225 227 231 235 232 226 223 222 222 221 219 218 219 220 221 219 218 218 220 221 223 225 227 228 229 230 231 232 237 242 246
293 288 281 273 268 259 249 243 240 240 241 241 240 239 235 235 238 238 237 235 233 234 237 237 235 235 236 232 228 227 227 228 230 230 227 226 227 226 225 226 227 228 227 227 227 229 233 233 230 227 223 222 223 223 222 221 222 224 224 223 223 224 224 226 227 229 231 232 232 233 235 238 243 247
295 291 287 279 272 265 255 247 244 243 244 244 245 244 240 237 237 240 241 237 232 232 235 235 232 231 233 233 231 229 227 227 229 230 227 227 227 226 227 228 229 229 228 228 228 228 231 233 232 230 226 222 222 224 225 224 224 225 227 228 227 227 228 229 230 232 233 234 234 236 238 240 243 247
294 293 289 282 276 271 263 254 249 247 248 248 247 247 244 239 236 238 240 238 232 232 234 234 232 230 231 231 230 229 228 227 228 229 227 226 226 226 226 228 229 229 229 228 228 228 229 231 232 231 229 225 223 224 226 226 226 227 227 230 231 231 231 231 232 234 235 236 237 238 240 242 244 247
290 290 289 287 280 271 266 262 257 254 252 250 250 249 246 239 235 235 236 237 233 231 232 233 232 232 231 230 229 228 227 226 227 227 226 225 225 225 225 226 228 229 228 229 228 228 228 229 231 231 230 228 226 226 227 227 227 228 229 230 232 233 234 233 233 235 236 237 239 240 242 244 245 248
287 286 286 287 283 275 269 264 261 258 256 254 252 252 247 239 236 235 234 235 234 231 231 232 232 233 233 231 230 229 227 226 226 226 227 227 226 225 226 226 227 228 228 228 229 228 229 230 230 230 231 230 229 228 228 228 228 229 230 231 232 233 234 234 235 236 237 239 240 242 243 244 246 248
285 284 283 283 282 278 274 270 264 260 258 256 252 252 247 239 236 236 234 234 233 231 232 232 231 233 234 233 231 229 226 225 227 227 227 229 229 227 228 228 228 228 227 227 228 228 228 229 229 229 230 231 230 230 230 231 230 231 231 232 232 233 234 235 236 237 239 240 242 243 244 244 245 247
282 281 280 280 278 277 275 275 271 263 259 256 253 251 245 236 233 235 235 235 233 231 231 232 232 232 234 233 230 228 226 224 226 227 225 227 228 226 226 227 228 228 228 227 228 227 228 229 229 228 229 230 231 231 231 232 232 233 234 234 235 234 235 236 237 239 241 242 243 243 243 243 244 246
278 278 278 278 276 275 275 276 276 270 262 256 252 249 241 233 233 236 236 235 233 231 231 233 234 231 231 231 229 227 226 225 226 227 225 226 227 224 222 224 224 225 226 225 225 225 225 227 227 227 227 229 231 231 231 232 233 235 236 237 237 238 238 238 239 241 242 243 243 242 241 242 243 246
276 274 274 274 274 273 274 276 278 275 267 259 254 249 240 233 233 236 237 235 233 232 231 233 235 233 231 232 231 228 227 228 229 227 226 228 229 225 223 224 224 224 225 225 225 225 225 226 228 227 227 228 229 231 231 232 233 235 237 239 239 240 241 241 242 243 244 245 244 243 242 242 244 247
277 273 270 270 270 269 270 272 275 274 268 262 258 253 244 237 234 234 235 233 232 232 232 233 235 233 231 232 233 231 229 230 229 226 226 229 229 226 225 227 228 227 227 227 225 225 224 225 227 228 228 228 229 230 230 231 232 233 235 238 239 241 243 244 245 246 247 247 247 246 245 245 246 248
275 273 270 267 267 266 267 269 271 273 269 263 260 256 251 244 237 235 234 231 229 231 232 233 234 234 232 232 233 232 229 228 229 228 228 229 228 227 229 231 230 229 229 230 228 226 224 224 225 226 227 227 227 229 229 230 231 233 235 237 239 241 243 244 246 247 248 249 250 250 248 247 247 249
272 272 269 267 266 264 263 264 267 269 269 266 263 259 255 250 242 236 235 231 229 231 234 234 233 233 232 232 233 233 231 230 232 232 232 230 228 229 232 233 230 228 229 229 228 227 226 225 227 228 229 230 229 229 230 230 232 234 235 236 238 240 242 244 246 247 249 250 251 251 250 249 250 252
270 269 269 267 266 264 262 261 262 264 266 267 266 261 256 255 249 240 235 233 231 232 234 235 233 232 232 232 233 234 234 233 233 234 234 232 230 229 231 232 230 226 227 228 227 226 226 225 227 229 231 232 232 231 232 233 234 236 236 237 239 240 242 244 246 248 250 251 251 251 252 252 253 255
269 267 267 267 266 265 262 259 258 258 261 263 265 264 258 255 253 246 239 235 233 233 234 234 234 234 234 233 234 235 234 233 233 234 235 234 232 230 228 231 232 228 227 228 227 225 225 225 225 228 230 231 232 232 232 233 234 234 235 236 238 240 242 243 245 247 249 250 251 252 253 254 256 258
274 268 265 265 265 264 262 259 255 253 255 257 259 263 262 257 254 250 245 240 237 235 234 233 234 235 235 234 234 233 234 234 233 233 233 233 233 230 227 229 233 233 231 231 229 226 225 226 225 226 228 229 230 229 229 230 231 232 233 235 237 239 241 243 245 247 249 250 252 253 254 256 258 260
278 272 267 264 263 263 261 257 252 249 249 250 252 256 259 259 257 252 247 243 241 238 236 235 235 235 235 236 234 232 235 235 233 232 232 232 232 230 228 229 232 233 230 229 230 228 226 226 226 226 227 228 228 227 226 227 228 229 231 233 236 238 240 243 245 247 249 251 252 253 255 257 259 260
281 275 269 265 262 260 258 254 250 248 247 247 249 251 253 258 261 256 249 246 244 241 239 237 236 235 236 236 233 232 234 232 229 230 232 233 233 232 229 228 231 233 229 225 225 226 226 227 226 226 226 227 226 226 226 226 227 228 230 233 235 238 240 243 245 247 249 250 251 253 255 257 258 260
285 280 274 267 262 258 254 251 247 246 246 247 248 250 252 256 259 258 253 249 247 244 241 239 238 238 238 236 230 228 230 228 224 227 231 232 232 232 230 228 229 233 230 223 220 221 224 226 226 225 226 226 226 225 225 226 227 228 231 234 236 239 241 243 245 247 248 249 251 253 255 257 258 260
288 284 279 272 265 259 253 249 245 243 244 246 246 247 250 253 255 256 255 251 248 245 242 239 238 238 238 236 230 227 229 228 224 225 227 228 227 227 227 227 228 230 227 222 219 217 216 220 223 224 225 225 224 225 225 226 228 230 232 235 237 239 241 242 244 245 247 248 250 252 254 256 257 259
290 285 282 277 269 261 254 249 244 241 242 244 245 245 247 249 251 252 253 253 250 246 242 239 238 237 236 234 231 228 229 228 226 226 228 229 228 228 227 226 227 229 225 220 220 216 212 215 220 222 223 224 224 225 226 227 229 231 233 235 236 238 239 240 243 245 247 249 250 252 253 254 256 259
292 286 282 280 274 266 257 250 244 240 240 241 243 244 244 245 247 247 249 252 252 249 246 242 241 239 236 234 232 230 229 228 228 229 230 229 228 229 230 229 229 228 224 219 221 219 213 214 217 220 221 223 224 227 228 230 231 232 234 235 236 237 238 239 242 244 246 249 250 251 251 253 255 256
292 287 284 282 279 272 262 253 246 241 238 239 240 242 241 241 244 245 246 248 251 253 250 245 242 240 237 235 231 229 228 228 229 230 230 229 229 229 231 233 233 231 225 219 219 220 218 217 218 220 223 225 226 227 227 228 229 232 234 235 236 237 237 238 240 243 246 248 249 250 250 251 252 253
292 288 285 283 282 277 269 261 252 243 237 236 237 240 241 241 244 247 246 245 248 252 251 246 244 241 238 234 231 229 228 228 230 230 228 229 232 233 233 234 235 234 230 224 221 221 221 222 222 223 225 227 229 230 229 228 228 230 232 234 235 237 237 238 240 243 246 248 249 249 249 250 251 252
297 291 288 284 282 278 272 267 262 252 240 234 234 239 242 242 241 243 244 244 246 251 251 248 245 242 237 233 230 229 229 229 229 230 229 230 234 235 236 236 233 230 230 230 229 227 226 226 227 227 226 226 227 230 230 229 228 229 231 233 234 235 236 238 240 243 246 247 248 247 248 249 251 253
304 298 293 289 286 281 272 265 265 263 250 238 234 236 240 240 238 238 240 243 245 247 248 247 248 246 241 234 230 229 229 228 228 229 228 230 233 235 237 238 235 230 229 232 232 232 233 234 232 230 229 227 226 226 228 230 231 231 231 232 232 233 234 236 239 242 243 244 244 245 247 249 251 252
314 306 297 291 290 289 283 271 264 265 258 243 236 236 238 239 238 236 238 242 245 247 248 248 247 246 243 236 230 228 228 228 228 228 227 229 233 236 236 236 234 231 232 234 234 233 235 237 236 235 236 235 233 230 229 229 232 234 234 235 235 235 235 235 236 237 237 237 240 243 247 251 255 259
324 319 307 297 292 292 293 285 271 265 260 246 237 236 236 238 238 238 238 241 243 244 246 245 245 245 245 240 233 230 230 230 228 227 227 228 231 234 235 235 234 234 234 234 234 235 235 235 236 237 238 239 240 240 236 232 232 234 236 237 237 236 235 233 232 232 234 237 242 248 254 260 265 270
332 329 323 312 301 294 295 292 281 271 263 251 241 237 236 237 238 237 239 241 243 245 246 245 243 242 241 239 236 232 231 231 229 228 228 228 228 230 232 234 234 235 235 232 231 234 236 236 237 239 239 238 238 239 237 234 233 234 235 236 237 235 233 231 230 232 238 244 251 258 264 269 272 275
338 335 332 325 316 307 299 291 282 273 262 250 241 237 239 240 238 237 239 240 238 237 234 229 228 226 224 225 225 220 217 220 222 222 223 225 226 227 229 230 231 232 234 235 234 237 239 239 240 241 242 240 237 235 236 236 237 237 236 234 234 232 231 231 234 239 246 253 260 265 269 271 274 276
351 348 344 340 335 329 318 304 294 281 266 255 243 238 246 248 237 228 224 223 223 225 223 220 223 226 223 220 219 214 213 216 218 218 219 220 222 223 225 227 226 225 226 228 230 230 231 233 235 236 237 236 232 228 230 233 233 233 232 230 232 234 236 239 243 248 253 258 262 266 269 272 274 275
1 353 344 338 335 331 327 320 317 304 282 281 259 241 247 245 226 210 201 204 216 230 233 225 224 227 227 227 227 225 227 230 231 232 233 233 234 235 235 235 235 232 229 228 225 219 213 211 212 213 218 223 219 213 215 222 225 228 232 236 239 241 241 242 245 250 255 260 263 267 270 271 273 274
2 353 345 339 333 329 328 333 341 335 283 211 204 214 221 221 211 200 193 198 212 225 224 217 218 225 230 234 237 238 242 246 249 251 251 250 250 249 246 246 245 244 243 242 240 234 225 217 213 212 215 219 218 216 220 227 231 233 235 237 238 239 240 243 250 257 262 265 266 267 267 268 272 276
360 356 356 356 352 347 342 340 350 2 16 108 133 171 195 205 207 213 223 222 217 216 211 206 212 223 230 234 239 243 247 250 252 254 254 252 250 246 243 244 246 248 250 250 249 247 243 238 234 231 228 225 222 222 226 231 234 235 235 235 236 238 242 248 256 262 264 265 267 271 275 280 282 282
360 2 6 8 10 10 6 357 350 6 33 61 77 98 139 187 202 219 238 234 224 219 213 210 217 227 233 237 241 241 241 244 249 252 250 248 248 247 245 245 245 245 246 247 248 248 246 241 236 232 228 223 221 221 224 228 233 235 235 236 238 240 245 251 255 258 261 265 273 282 287 288 284 280
2 8 12 14 17 19 21 21 16 9 11 27 50 77 99 116 125 126 161 213 222 225 219 218 223 227 230 233 236 235 238 248 255 254 251 251 253 254 253 250 246 241 237 236 237 239 237 231 227 224 222 221 222 224 226 231 233 231 230 233 236 239 244 247 249 254 261 270 279 283 283 280 275 271
5 12 16 18 20 21 23 26 28 25 22 20 17 22 49 88 109 114 127 166 213 248 232 216 213 214 218 223 226 231 240 248 250 249 248 248 248 250 250 247 241 236 232 231 231 230 227 222 218 218 219 222 224 226 228 230 230 227 227 232 234 233 235 240 246 257 266 272 275 274 270 267 265 264
9 14 18 21 22 23 23 25 27 28 28 28 28 28 31 38 55 79 113 143 168 195 220 227 226 224 226 230 235 238 241 242 243 243 244 242 241 241 242 240 235 231 229 229 229 227 224 222 219 219 219 220 221 223 224 223 222 220 219 219 219 222 231 242 252 261 265 266 265 263 262 262 263 264
13 16 20 22 24 24 24 24 25 27 27 27 29 31 31 32 35 44 64 96 124 143 161 182 203 219 229 236 240 242 242 243 245 245 244 241 238 235 234 232 231 229 227 225 222 219 217 215 213 211 209 205 201 200 200 201 202 202 201 204 212 225 236 246 253 256 257 257 258 259 262 264 263 259
16 19 23 25 25 25 24 24 24 24 25 25 26 27 29 29 29 29 33 45 67 96 123 147 166 185 203 215 219 223 225 226 226 225 224 221 217 214 211 209 207 207 207 207 206 204 202 199 195 190 187 184 181 180 179 181 186 190 196 208 220 229 237 243 245 244 245 246 248 252 254 248 238 238
17 20 25 28 28 27 25 24 23 23 23 24 24 24 25 27 28 29 30 32 36 45 55 76 114 141 156 169 178 187 194 195 194 194 195 195 190 187 186 186 187 187 187 186 186 185 183 179 174 170 168 168 171 176 179 183 190 198 208 219 226 230 233 233 229 227 228 228 227 228 225 211 202 216
15 18 22 26 29 30 29 27 25 24 23 24 26 26 26 26 28 31 33 35 36 40 45 51 64 87 113 127 137 148 158 162 160 159 158 159 161 162 164 166 168 169 169 169 169 169 167 164 161 161 161 164 170 177 184 192 202 212 220 224 225 223 221 218 213 212 212 206 199 199 202 201 205 224
14 17 19 22 25 28 30 31 29 28 26 25 27 29 31 31 31 33 37 42 44 47 53 64 79 97 115 127 134 142 150 151 147 143 142 142 143 144 147 150 153 155 156 158 159 159 158 157 158 160 163 167 173 181 189 198 206 213 217 218 213 208 204 201 197 196 195 190 183 183 193 207 226 247
11 14 19 23 25 27 29 28 28 28 30 30 30 31 34 37 39 40 44 51 57 63 68 77 90 102 112 122 127 130 132 132 132 131 131 130 130 131 133 136 139 141 144 146 149 151 152 154 155 158 162 167 173 179 186 194 200 203 204 200 193 190 190 189 186 184 184 185 184 187 197 214 235 253
9 12 16 20 24 30 33 29 26 26 29 32 34 33 34 38 43 47 52 57 64 73 81 87 93 98 102 106 109 110 111 113 114 114 114 112 112 113 114 115 118 123 130 135 140 145 149 153 155 158 161 164 168 170 173 179 188 194 195 189 183 183 183 182 180 180 182 187 194 203 213 230 247 258